CDT,Max TemperatureF,Mean TemperatureF,Min TemperatureF,Max Dew PointF,MeanDew PointF,Min DewpointF,Max Humidity, Mean Humidity, Min Humidity, Max Sea Level PressureIn, Mean Sea Level PressureIn, Min Sea Level PressureIn, Max VisibilityMiles, Mean VisibilityMiles, Min VisibilityMiles, Max Wind SpeedMPH, Mean Wind SpeedMPH, Max Gust SpeedMPH,PrecipitationIn, CloudCover, Events, WindDirDegrees
2012-10-1,64,50,37,45,37,28,100,68,26,30.24,30.12,29.83,10,10,10,14,10,18,0.00,0,,261
2012-10-2,66,55,44,41,37,32,76,51,35,29.88,29.73,29.60,10,10,10,21,14,31,0.00,0,,287
2012-10-3,44,40,33,41,36,32,100,93,71,30.33,30.09,29.89,10,10,8,17,10,26,0.88,5,Rain-Snow,8
2012-10-4,37,32,26,34,29,23,100,85,60,30.37,30.34,30.33,10,10,10,16,13,23,0.00,6,,337
2012-10-5,37,29,21,23,20,18,93,71,45,30.40,30.37,30.34,10,10,10,17,10,23,0.00,5,,342
2012-10-6,46,32,17,25,20,16,93,67,34,30.41,30.29,30.07,10,10,10,17,7,23,0.00,1,,275
2012-10-7,53,40,26,39,30,23,100,71,35,30.05,29.87,29.65,10,10,10,16,8,26,0.04,4,Rain,270
2012-10-8,48,40,33,41,34,23,100,73,46,29.78,29.68,29.58,10,10,10,26,15,37,0.01,5,Rain,304
2012-10-9,41,36,30,32,28,23,100,77,52,30.03,29.96,29.78,10,10,7,24,15,39,0.14,7,Rain-Snow,313
2012-10-10,39,31,23,36,30,19,100,85,65,30.06,29.93,29.83,10,10,10,15,7,16,0.00,5,Rain,30
2012-10-11,39,31,23,32,25,18,100,79,42,30.33,30.25,30.07,10,10,10,14,9,,0.01,5,Rain-Snow,337
2012-10-12,57,40,24,36,30,21,87,68,38,30.23,29.88,29.64,10,10,7,25,12,32,0.00,2,,180
2012-10-13,57,47,37,37,35,32,87,67,41,29.96,29.77,29.63,10,10,4,17,8,23,0.00,0,,314
2012-10-14,64,47,30,39,35,28,100,74,37,29.98,29.93,29.84,10,10,10,16,4,17,0.00,2,Rain,252
2012-10-15,71,58,44,41,39,37,81,53,31,29.83,29.67,29.60,10,10,10,22,8,29,0.00,4,Rain,247
2012-10-16,60,46,32,52,44,32,100,89,55,29.63,29.41,29.23,10,9,0,18,7,28,0.06,4,Fog-Rain,231
2012-10-17,48,42,35,46,39,36,100,92,81,29.54,29.38,29.22,10,10,3,36,26,54,0.74,6,Rain,303
2012-10-18,41,39,37,37,37,34,100,92,81,30.01,29.80,29.55,10,10,9,37,28,53,0.13,8,Rain,331
2012-10-19,46,40,35,36,33,32,87,79,57,29.98,29.80,29.58,10,10,10,15,9,21,0.00,4,,157
2012-10-20,66,49,32,39,36,32,100,72,35,29.64,29.53,29.49,10,10,10,15,6,20,0.00,1,,233
2012-10-21,48,39,30,36,29,23,87,66,37,30.07,29.91,29.67,10,10,10,16,8,24,0.00,5,,326
2012-10-22,39,36,32,34,30,28,93,77,65,30.09,30.01,29.80,10,10,10,17,7,28,0.00,8,Rain-Snow,96
2012-10-23,41,36,32,41,37,30,100,98,87,29.84,29.72,29.64,10,7,0,18,11,26,0.08,7,Fog-Rain,310
2012-10-24,32,29,26,30,25,23,100,84,69,30.06,29.97,29.85,10,10,10,21,14,31,0.00,8,,284
2012-10-25,32,30,28,25,23,19,86,76,60,30.24,30.13,30.05,10,10,10,26,18,39,0.00,8,Rain,305
2012-10-26,30,24,19,25,20,12,93,77,55,30.30,30.26,30.23,10,10,2,18,14,32,0.16,8,Rain-Snow,295
2012-10-27,28,24,19,21,18,14,100,78,59,30.24,30.22,30.20,10,10,9,8,2,,0.06,8,Snow,33
2012-10-28,30,22,15,30,22,12,100,88,69,30.23,30.11,30.01,10,8,1,20,9,25,0.12,8,Snow,114
2012-10-29,37,34,30,37,32,30,100,100,100,30.03,30.00,29.97,10,2,0,14,11,16,0.00,8,Fog-Rain,119
2012-10-30,55,45,35,48,40,36,100,95,72,29.97,29.95,29.93,10,7,0,10,5,,0.00,3,Fog-Thunderstorm,241
2012-10-31,41,36,28,41,35,28,100,98,81,30.15,30.04,29.93,10,10,2,20,6,26,0.00,7,Rain,354